Location: Unspecified
(46.0725°N, 13.7344°E)
Time: 00:01:40
(UTC+02:00)

Cosmos 2058 - Visible Passes

Search period start: 13 June 2024 00:00
Search period end: 23 June 2024 00:00
Orbit: 547 x 565 km, 82.5° (Epoch: 11 June)

Date Brightness Start Highest point End Pass type
(mag) Time Alt. Az. Time Alt. Az. Time Alt. Az.
13 Jun 5.6 03:21:32 10° ESE 03:23:16 13° E 03:25:01 10° ENE visible
14 Jun 5.5 03:18:31 10° ESE 03:20:42 14° E 03:22:53 10° NE visible
15 Jun 5.4 03:15:37 10° SE 03:18:08 16° E 03:20:40 10° NE visible
16 Jun 5.3 03:12:45 10° SE 03:15:33 18° E 03:18:22 10° NE visible
17 Jun 5.1 03:09:56 10° SE 03:12:58 21° E 03:16:02 10° NE visible
18 Jun 4.9 03:07:09 10° SE 03:10:23 23° E 03:13:39 10° NE visible
19 Jun 4.7 03:04:23 10° SSE 03:07:48 26° E 03:11:13 10° NNE visible
20 Jun 4.4 03:01:56 11° SSE 03:05:12 30° E 03:08:47 10° NNE visible
21 Jun 4.2 02:59:37 14° SSE 03:02:36 34° E 03:06:19 10° NNE visible
21 Jun 4.5 04:36:08 10° WSW 04:39:15 21° WNW 04:42:23 10° NNW visible
22 Jun 4.0 02:57:17 17° SSE 02:59:59 39° E 03:03:49 10° NNE visible
22 Jun 4.6 04:33:48 10° WSW 04:36:43 19° WNW 04:39:39 10° NNW visible
